Weather in Kardamaina

Greece     36°53′25″N   27°17′21″E
temp.,
°C
wind,
m/s
gust,
m/s
humid.,
%
clouds,
%
prec.,
mm/h
press.,
hPa
HPBL,
m
18 may, tue
tue1800:00+18ssw228297 0.0 1012137
03:00+18s23854 0.0 1011157
06:00+18sse33840 0.0 1011155
09:00+20sse44765 0.0 1012322
12:00+22sse457397 0.0 1012274
15:00+23sse45688 0.0 1012246
18:00+23ssw336784 0.0 1012215
21:00+20sse33845 0.0 101342
19 may, wed
wed1900:00+19ese22870 0.0 101330
03:00+19se22840 0.0 101326
06:00+19ne11814 0.0 101312
09:00+22wnw11670 0.0 1014102
12:00+23wsw22570 0.0 1014310
15:00+24wsw34570 0.0 1013277
18:00+24wsw33640 0.0 1012156
21:00+21s22760 0.0 101228
20 may, thu
thu2000:00+19sse33840 0.0 101241
03:00+19sse33841 0.0 101156
06:00+19sse45830 0.0 1010150
09:00+20s34710 0.0 1011247
12:00+22s45690 0.0 1012245
15:00+23s44640 0.0 1011235
18:00+22sse34670 0.0 1010185
21:00+20sse45810 0.0 1010105
21 may, fri
fri2100:00+20se45810 0.0 1010101
03:00+19se568116 0.0 1009133
06:00+19sse577910 0.0 1008366
09:00+20sw67704 0.0 1009801
12:00+20nw877110 0.0 1010856
15:00+19nw1212690 0.0 1012751
18:00+18nw1113660 0.0 1012794
21:00+18nw1013621 0.0 10131028
22 may, sat
sat2200:00+17nw1013650 0.0 10141256
03:00+16nnw1014650 0.0 10141246
06:00+16nnw1012660 0.0 10141101
09:00+17nnw1014680 0.0 10151093
12:00+19nnw1012600 0.0 10151258
15:00+19nw1112664 0.0 1015911
18:00+19nw11137134 0.0 1014816
21:00+19nw911770 0.0 1014599